| time (UTC) | temp C | wind direction | speed KPH | gust KPH | rain 1hr cm | rain 24hr cm | rain mn cm | humidity % | barometer mb |
| 20260902164004 | 25 | 38 | 6.4 | 12.9 | 0.00 | 0.00 | 0.00 | 58 | 1013.8 |
| 20260902163503 | 25 | 55 | 3.2 | 12.9 | 0.00 | 0.00 | 0.00 | 60 | 1013.8 |
| 20260902163002 | 25 | 61 | 4.8 | 9.7 | 0.00 | 0.00 | 0.00 | 59 | 1013.7 |
| 20260902162501 | 24 | 19 | 4.8 | 16.1 | 0.00 | 0.00 | 0.00 | 61 | 1013.7 |
| 20260902162001 | 24 | 14 | 4.8 | 16.1 | 0.00 | 0.00 | 0.00 | 60 | 1013.6 |
| 20260902161501 | 23 | 26 | 3.2 | 11.3 | 0.00 | 0.00 | 0.00 | 62 | 1013.7 |
| 20260902161001 | 23 | 69 | 4.8 | 12.9 | 0.00 | 0.00 | 0.00 | 61 | 1013.6 |
| 20260902160600 | 24 | 338 | 4.8 | 16.1 | 0.00 | 0.00 | 0.00 | 59 | 1013.6 |
| 20260902160059 | 25 | 33 | 4.8 | 16.1 | 0.00 | 0.00 | 0.00 | 61 | 1013.6 |
| 20260902155558 | 24 | 20 | 3.2 | 8.0 | 0.00 | 0.00 | 0.00 | 62 | 1013.5 |
| 20260902155056 | 23 | 74 | 1.6 | 9.7 | 0.00 | 0.00 | 0.00 | 63 | 1013.5 |
| 20260902154555 | 23 | 64 | 4.8 | 8.0 | 0.00 | 0.00 | 0.00 | 65 | 1013.6 |
| 20260902154054 | 23 | 45 | 1.6 | 8.0 | 0.00 | 0.00 | 0.00 | 64 | 1013.8 |
| 20260902153553 | 23 | 15 | 3.2 | 6.4 | 0.00 | 0.00 | 0.00 | 64 | 1013.7 |
| 20260902153053 | 23 | 61 | 1.6 | 6.4 | 0.00 | 0.00 | 0.00 | 66 | 1013.6 |
| 20260902152550 | 22 | 101 | 0.0 | 0.0 | 0.00 | 0.00 | 0.00 | 67 | 1013.7 |
| 20260902152051 | 22 | 99 | 0.0 | 0.0 | 0.00 | 0.00 | 0.00 | 68 | 1013.7 |
| 20260902151548 | 22 | 94 | 0.0 | 0.0 | 0.00 | 0.00 | 0.00 | 70 | 1013.8 |
| 20260902151046 | 22 | 94 | 0.0 | 0.0 | 0.00 | 0.00 | 0.00 | 69 | 1013.9 |
| 20260902150544 | 21 | 95 | 0.0 | 0.0 | 0.00 | 0.00 | 0.00 | 69 | 1014.0 |
| 20260902150044 | 21 | 95 | 0.0 | 0.0 | 0.00 | 0.00 | 0.00 | 70 | 1014.1 |
| 20260902145543 | 21 | 95 | 0.0 | 0.0 | 0.00 | 0.00 | 0.00 | 69 | 1014.1 |
| 20260902145043 | 21 | 95 | 0.0 | 0.0 | 0.00 | 0.00 | 0.00 | 71 | 1014.1 |
| 20260902144541 | 21 | 95 | 0.0 | 0.0 | 0.00 | 0.00 | 0.00 | 72 | 1014.1 |
| 20260902144040 | 21 | 95 | 0.0 | 0.0 | 0.00 | 0.00 | 0.00 | 72 | 1014.1 |
| 20260902143539 | 20 | 95 | 0.0 | 3.2 | 0.00 | 0.00 | 0.00 | 73 | 1014.1 |
| 20260902143038 | 20 | 95 | 0.0 | 4.8 | 0.00 | 0.00 | 0.00 | 73 | 1014.1 |
| 20260902142537 | 20 | 95 | 0.0 | 4.8 | 0.00 | 0.00 | 0.00 | 73 | 1014.1 |
| 20260902142036 | 20 | 105 | 1.6 | 4.8 | 0.00 | 0.00 | 0.00 | 73 | 1014.2 |
| 20260902141545 | 20 | 110 | 1.6 | 4.8 | 0.00 | 0.00 | 0.00 | 73 | 1014.2 |
| 20260902141035 | 20 | 104 | 0.0 | 4.8 | 0.00 | 0.00 | 0.00 | 74 | 1014.3 |
| 20260902140534 | 20 | 103 | 0.0 | 4.8 | 0.00 | 0.00 | 0.00 | 74 | 1014.3 |
| 20260902140034 | 19 | 104 | 0.0 | 4.8 | 0.00 | 0.00 | 0.00 | 74 | 1014.3 |
| 20260902135533 | 19 | 103 | 0.0 | 3.2 | 0.00 | 0.00 | 0.00 | 74 | 1014.4 |
| 20260902135032 | 19 | 103 | 1.6 | 4.8 | 0.00 | 0.00 | 0.00 | 74 | 1014.4 |
| 20260902134534 | 18 | 103 | 1.6 | 4.8 | 0.00 | 0.00 | 0.00 | 74 | 1014.5 |
| 20260902134031 | 18 | 105 | 0.0 | 4.8 | 0.00 | 0.00 | 0.00 | 74 | 1014.4 |
| 20260902133535 | 18 | 105 | 1.6 | 4.8 | 0.00 | 0.00 | 0.00 | 74 | 1014.3 |
| 20260902133032 | 18 | 81 | 1.6 | 6.4 | 0.00 | 0.00 | 0.00 | 74 | 1014.3 |
| 20260902132532 | 18 | 81 | 1.6 | 6.4 | 0.00 | 0.00 | 0.00 | 74 | 1014.3 |
| 20260902132029 | 18 | 55 | 1.6 | 6.4 | 0.00 | 0.00 | 0.00 | 74 | 1014.2 |
| 20260902131529 | 18 | 49 | 0.0 | 4.8 | 0.00 | 0.00 | 0.00 | 76 | 1014.2 |
| 20260902131029 | 18 | 49 | 1.6 | 4.8 | 0.00 | 0.00 | 0.00 | 77 | 1014.3 |
| 20260902130529 | 18 | 53 | 1.6 | 4.8 | 0.00 | 0.00 | 0.00 | 77 | 1014.2 |
| 20260902130033 | 17 | 19 | 1.6 | 4.8 | 0.00 | 0.00 | 0.00 | 79 | 1014.3 |
| 20260902125528 | 17 | 17 | 0.0 | 3.2 | 0.00 | 0.00 | 0.00 | 80 | 1014.4 |
| 20260902125028 | 17 | 12 | 0.0 | 6.4 | 0.00 | 0.00 | 0.00 | 81 | 1014.4 |
| 20260902124528 | 17 | 12 | 1.6 | 6.4 | 0.00 | 0.00 | 0.00 | 82 | 1014.2 |
| 20260902124026 | 16 | 14 | 0.0 | 6.4 | 0.00 | 0.00 | 0.00 | 82 | 1014.2 |
| 20260902123528 | 16 | 12 | 0.0 | 6.4 | 0.00 | 0.00 | 0.00 | 83 | 1014.0 |
| 20260902123025 | 16 | 12 | 3.2 | 4.8 | 0.00 | 0.00 | 0.00 | 83 | 1014.2 |
| 20260902122523 | 16 | 13 | 1.6 | 4.8 | 0.00 | 0.00 | 0.00 | 84 | 1014.0 |
| 20260902122023 | 16 | 5 | 0.0 | 1.6 | 0.00 | 0.00 | 0.00 | 84 | 1014.0 |
| 20260902121523 | 16 | 5 | 0.0 | 0.0 | 0.00 | 0.00 | 0.00 | 84 | 1014.1 |
| 20260902121022 | 16 | 5 | 0.0 | 3.2 | 0.00 | 0.00 | 0.00 | 84 | 1014.0 |
| 20260902120521 | 16 | 5 | 0.0 | 3.2 | 0.00 | 0.00 | 0.00 | 84 | 1014.0 |
| 20260902120019 | 16 | 5 | 0.0 | 4.8 | 0.00 | 0.00 | 0.00 | 84 | 1014.0 |
| 20260902115525 | 15 | 5 | 0.0 | 4.8 | 0.00 | 0.00 | 0.00 | 84 | 1013.9 |
| 20260902115018 | 15 | 5 | 1.6 | 4.8 | 0.00 | 0.00 | 0.00 | 84 | 1013.9 |
| 20260902114524 | 15 | 360 | 0.0 | 6.4 | 0.00 | 0.00 | 0.00 | 84 | 1013.9 |
| 20260902114021 | 15 | 360 | 1.6 | 6.4 | 0.00 | 0.00 | 0.00 | 84 | 1013.9 |
| 20260902113517 | 15 | 5 | 3.2 | 4.8 | 0.00 | 0.00 | 0.00 | 84 | 1013.9 |
| 20260902113018 | 15 | 350 | 1.6 | 4.8 | 0.00 | 0.00 | 0.00 | 84 | 1013.9 |
| 20260902112518 | 15 | 355 | 0.0 | 3.2 | 0.00 | 0.00 | 0.00 | 84 | 1013.9 |
| 20260902112017 | 15 | 355 | 0.0 | 3.2 | 0.00 | 0.00 | 0.00 | 84 | 1014.1 |
| 20260902111517 | 15 | 355 | 0.0 | 1.6 | 0.00 | 0.00 | 0.00 | 84 | 1014.1 |
| 20260902111016 | 15 | 355 | 0.0 | 1.6 | 0.00 | 0.00 | 0.00 | 84 | 1013.8 |
| 20260902110518 | 15 | 355 | 0.0 | 1.6 | 0.00 | 0.00 | 0.00 | 84 | 1013.9 |
| 20260902110016 | 15 | 355 | 0.0 | 3.2 | 0.00 | 0.00 | 0.00 | 84 | 1013.9 |
| 20260902105515 | 15 | 355 | 0.0 | 6.4 | 0.00 | 0.00 | 0.00 | 84 | 1013.9 |
| 20260902105019 | 15 | 355 | 0.0 | 6.4 | 0.00 | 0.00 | 0.00 | 84 | 1013.7 |
| 20260902104517 | 15 | 355 | 0.0 | 1.6 | 0.00 | 0.00 | 0.00 | 85 | 1013.6 |
| 20260902104015 | 15 | 355 | 0.0 | 4.8 | 0.00 | 0.00 | 0.00 | 85 | 1013.6 |
| 20260902103514 | 15 | 355 | 1.6 | 4.8 | 0.00 | 0.00 | 0.00 | 85 | 1013.6 |
| 20260902103015 | 15 | 355 | 1.6 | 4.8 | 0.00 | 0.00 | 0.00 | 85 | 1013.8 |
| 20260902102514 | 15 | 355 | 1.6 | 4.8 | 0.00 | 0.00 | 0.00 | 86 | 1013.8 |
| 20260902102015 | 15 | 311 | 1.6 | 4.8 | 0.00 | 0.00 | 0.00 | 86 | 1013.8 |
| 20260902101515 | 15 | 241 | 0.0 | 4.8 | 0.00 | 0.00 | 0.00 | 86 | 1014.0 |
| 20260902101014 | 15 | 241 | 0.0 | 4.8 | 0.00 | 0.00 | 0.00 | 86 | 1013.9 |
| 20260902100513 | 15 | 232 | 0.0 | 0.0 | 0.00 | 0.00 | 0.00 | 86 | 1014.0 |
| 20260902100015 | 15 | 232 | 0.0 | 0.0 | 0.00 | 0.00 | 0.00 | 86 | 1014.0 |
| 20260902095512 | 15 | 232 | 0.0 | 0.0 | 0.00 | 0.00 | 0.00 | 86 | 1014.1 |
| 20260902095011 | 15 | 232 | 0.0 | 1.6 | 0.00 | 0.00 | 0.00 | 86 | 1014.1 |
| 20260902094511 | 15 | 232 | 0.0 | 1.6 | 0.00 | 0.00 | 0.00 | 85 | 1014.1 |
| 20260902094011 | 15 | 232 | 0.0 | 0.0 | 0.00 | 0.00 | 0.00 | 85 | 1014.0 |
| 20260902093511 | 15 | 232 | 0.0 | 0.0 | 0.00 | 0.00 | 0.00 | 85 | 1014.0 |
| 20260902093010 | 15 | 232 | 0.0 | 1.6 | 0.00 | 0.00 | 0.00 | 85 | 1014.0 |
| 20260902092511 | 15 | 232 | 0.0 | 3.2 | 0.00 | 0.00 | 0.00 | 85 | 1013.9 |
| 20260902092009 | 15 | 232 | 0.0 | 3.2 | 0.00 | 0.00 | 0.00 | 85 | 1013.9 |
| 20260902091510 | 15 | 232 | 1.6 | 3.2 | 0.00 | 0.00 | 0.00 | 85 | 1013.9 |
| 20260902091008 | 15 | 232 | 0.0 | 0.0 | 0.00 | 0.00 | 0.00 | 84 | 1013.8 |
| 20260902090507 | 15 | 232 | 0.0 | 0.0 | 0.00 | 0.00 | 0.00 | 84 | 1013.8 |
| 20260902090007 | 15 | 232 | 0.0 | 0.0 | 0.00 | 0.00 | 0.00 | 84 | 1013.8 |
| 20260902085505 | 15 | 232 | 0.0 | 0.0 | 0.00 | 0.00 | 0.00 | 84 | 1013.8 |
| 20260902085005 | 15 | 232 | 0.0 | 0.0 | 0.00 | 0.00 | 0.00 | 83 | 1013.6 |
| 20260902084513 | 16 | 232 | 0.0 | 1.6 | 0.00 | 0.00 | 0.00 | 83 | 1013.6 |
| 20260902084005 | 16 | 232 | 0.0 | 1.6 | 0.00 | 0.00 | 0.00 | 83 | 1013.6 |
| 20260902083504 | 16 | 232 | 0.0 | 0.0 | 0.00 | 0.00 | 0.00 | 83 | 1013.5 |
| 20260902083004 | 16 | 232 | 0.0 | 1.6 | 0.00 | 0.00 | 0.00 | 83 | 1013.4 |
| 20260902082504 | 16 | 232 | 0.0 | 1.6 | 0.00 | 0.00 | 0.00 | 83 | 1013.3 |
| 20260902082007 | 16 | 232 | 0.0 | 1.6 | 0.00 | 0.00 | 0.00 | 83 | 1013.3 |
| 20260902081504 | 16 | 232 | 0.0 | 3.2 | 0.00 | 0.00 | 0.00 | 83 | 1013.3 |
| 20260902081003 | 16 | 232 | 0.0 | 3.2 | 0.00 | 0.00 | 0.00 | 83 | 1013.2 |
| 20260902080503 | 16 | 228 | 0.0 | 0.0 | 0.00 | 0.00 | 0.00 | 84 | 1013.2 |
| 20260902080002 | 16 | 228 | 0.0 | 1.6 | 0.00 | 0.00 | 0.00 | 84 | 1013.1 |
| 20260902075501 | 16 | 228 | 0.0 | 3.2 | 0.00 | 0.00 | 0.00 | 84 | 1013.2 |
| 20260902075001 | 16 | 223 | 0.0 | 4.8 | 0.00 | 0.00 | 0.00 | 83 | 1013.2 |
| 20260902074614 | 16 | 223 | 1.6 | 4.8 | 0.00 | 0.00 | 0.00 | 83 | 1013.2 |
| 20260902074100 | 16 | 219 | 0.0 | 1.6 | 0.00 | 0.00 | 0.00 | 83 | 1013.2 |
| 20260902073559 | 16 | 219 | 0.0 | 0.0 | 0.00 | 0.00 | 0.00 | 83 | 1013.4 |
| 20260902073059 | 16 | 219 | 0.0 | 0.0 | 0.00 | 0.00 | 0.00 | 83 | 1013.4 |
| 20260902072601 | 16 | 219 | 0.0 | 3.2 | 0.00 | 0.00 | 0.00 | 83 | 1013.5 |
| 20260902072058 | 16 | 219 | 0.0 | 3.2 | 0.00 | 0.00 | 0.00 | 83 | 1013.5 |
| 20260902071558 | 16 | 215 | 0.0 | 0.0 | 0.00 | 0.00 | 0.00 | 83 | 1013.6 |
| 20260902071055 | 16 | 215 | 0.0 | 0.0 | 0.00 | 0.00 | 0.00 | 83 | 1013.6 |
| 20260902070555 | 16 | 215 | 0.0 | 0.0 | 0.00 | 0.00 | 0.00 | 83 | 1013.7 |
| 20260902070055 | 16 | 215 | 0.0 | 0.0 | 0.00 | 0.00 | 0.00 | 82 | 1013.6 |
| 20260902065554 | 16 | 215 | 0.0 | 0.0 | 0.00 | 0.00 | 0.00 | 82 | 1013.7 |
| 20260902065054 | 17 | 215 | 0.0 | 0.0 | 0.00 | 0.00 | 0.00 | 82 | 1013.7 |
| 20260902064553 | 17 | 215 | 0.0 | 0.0 | 0.00 | 0.00 | 0.00 | 81 | 1013.8 |
| 20260902064053 | 17 | 215 | 0.0 | 0.0 | 0.00 | 0.00 | 0.00 | 81 | 1013.7 |
| 20260902063551 | 17 | 215 | 0.0 | 0.0 | 0.00 | 0.00 | 0.00 | 80 | 1013.8 |
| 20260902063110 | 17 | 215 | 0.0 | 0.0 | 0.00 | 0.00 | 0.00 | 79 | 1013.7 |
| 20260902062550 | 17 | 215 | 0.0 | 0.0 | 0.00 | 0.00 | 0.00 | 78 | 1013.9 |
| 20260902062048 | 18 | 215 | 0.0 | 0.0 | 0.00 | 0.00 | 0.00 | 78 | 1013.9 |
| 20260902061552 | 18 | 215 | 0.0 | 0.0 | 0.00 | 0.00 | 0.00 | 77 | 1013.9 |
| 20260902061048 | 18 | 215 | 0.0 | 0.0 | 0.00 | 0.00 | 0.00 | 77 | 1013.9 |
| 20260902060545 | 18 | 215 | 0.0 | 0.0 | 0.00 | 0.00 | 0.00 | 76 | 1013.8 |
| 20260902055543 | 18 | 215 | 0.0 | 0.0 | 0.00 | 0.00 | 0.00 | 75 | 1013.8 |
| 20260902055043 | 18 | 215 | 0.0 | 0.0 | 0.00 | 0.00 | 0.00 | 74 | 1013.9 |
| 20260902054543 | 18 | 215 | 0.0 | 0.0 | 0.00 | 0.00 | 0.00 | 73 | 1013.8 |
| 20260902054042 | 19 | 215 | 0.0 | 0.0 | 0.00 | 0.00 | 0.00 | 72 | 1013.7 |
| 20260902053542 | 19 | 215 | 0.0 | 0.0 | 0.00 | 0.00 | 0.00 | 72 | 1013.7 |
| 20260902053039 | 19 | 215 | 0.0 | 0.0 | 0.00 | 0.00 | 0.00 | 71 | 1013.7 |
| 20260902052540 | 19 | 215 | 0.0 | 0.0 | 0.00 | 0.00 | 0.00 | 71 | 1013.7 |
| 20260902052037 | 19 | 215 | 0.0 | 0.0 | 0.00 | 0.00 | 0.00 | 71 | 1013.6 |
| 20260902051545 | 20 | 215 | 0.0 | 0.0 | 0.00 | 0.00 | 0.00 | 71 | 1013.5 |
| 20260902051035 | 20 | 215 | 0.0 | 0.0 | 0.00 | 0.00 | 0.00 | 70 | 1013.5 |
| 20260902050534 | 20 | 215 | 0.0 | 0.0 | 0.00 | 0.00 | 0.00 | 70 | 1013.6 |
| 20260902050033 | 20 | 215 | 0.0 | 3.2 | 0.00 | 0.00 | 0.00 | 69 | 1013.6 |
| 20260902045532 | 20 | 215 | 0.0 | 3.2 | 0.00 | 0.00 | 0.00 | 69 | 1013.6 |
| 20260902045032 | 20 | 215 | 0.0 | 3.2 | 0.00 | 0.00 | 0.00 | 68 | 1013.5 |
| 20260902044532 | 20 | 215 | 0.0 | 4.8 | 0.00 | 0.00 | 0.00 | 68 | 1013.4 |
| 20260902044033 | 21 | 215 | 1.6 | 4.8 | 0.00 | 0.00 | 0.00 | 67 | 1013.5 |
| 20260902043532 | 21 | 215 | 0.0 | 0.0 | 0.00 | 0.00 | 0.00 | 67 | 1013.6 |
| 20260902043034 | 21 | 215 | 0.0 | 0.0 | 0.00 | 0.00 | 0.00 | 67 | 1013.5 |
| 20260902042532 | 21 | 215 | 0.0 | 0.0 | 0.00 | 0.00 | 0.00 | 66 | 1013.6 |
| 20260902042032 | 21 | 215 | 0.0 | 0.0 | 0.00 | 0.00 | 0.00 | 65 | 1013.7 |
| 20260902041549 | 21 | 215 | 0.0 | 0.0 | 0.00 | 0.00 | 0.00 | 65 | 1013.7 |
| 20260902041031 | 21 | 215 | 0.0 | 3.2 | 0.00 | 0.00 | 0.00 | 64 | 1013.7 |
| 20260902040531 | 21 | 215 | 0.0 | 4.8 | 0.00 | 0.00 | 0.00 | 64 | 1013.9 |
| 20260902040031 | 21 | 215 | 0.0 | 4.8 | 0.00 | 0.00 | 0.00 | 63 | 1013.8 |
| 20260902035534 | 22 | 216 | 1.6 | 4.8 | 0.00 | 0.00 | 0.00 | 62 | 1013.7 |
| 20260902035031 | 22 | 242 | 0.0 | 3.2 | 0.00 | 0.00 | 0.00 | 61 | 1013.9 |
| 20260902034531 | 22 | 325 | 0.0 | 3.2 | 0.00 | 0.00 | 0.00 | 60 | 1013.9 |
| 20260902034030 | 22 | 341 | 0.0 | 0.0 | 0.00 | 0.00 | 0.00 | 60 | 1013.8 |
| 20260902033531 | 22 | 341 | 0.0 | 0.0 | 0.00 | 0.00 | 0.00 | 59 | 1013.9 |
| 20260902033030 | 22 | 341 | 0.0 | 0.0 | 0.00 | 0.00 | 0.00 | 59 | 1013.8 |
| 20260902032530 | 22 | 341 | 0.0 | 0.0 | 0.00 | 0.00 | 0.00 | 59 | 1013.7 |
| 20260902032029 | 22 | 341 | 0.0 | 0.0 | 0.00 | 0.00 | 0.00 | 58 | 1013.5 |
| 20260902031530 | 22 | 341 | 0.0 | 1.6 | 0.00 | 0.00 | 0.00 | 58 | 1013.4 |
| 20260902031030 | 22 | 341 | 0.0 | 1.6 | 0.00 | 0.00 | 0.00 | 57 | 1013.4 |
| 20260902030530 | 22 | 341 | 0.0 | 1.6 | 0.00 | 0.00 | 0.00 | 57 | 1013.4 |
| 20260902030029 | 22 | 341 | 0.0 | 0.0 | 0.00 | 0.00 | 0.00 | 56 | 1013.5 |
| 20260902025530 | 23 | 341 | 0.0 | 0.0 | 0.00 | 0.00 | 0.00 | 55 | 1013.5 |
| 20260902025029 | 23 | 341 | 0.0 | 1.6 | 0.00 | 0.00 | 0.00 | 55 | 1013.5 |
| 20260902024529 | 23 | 341 | 0.0 | 1.6 | 0.00 | 0.00 | 0.00 | 55 | 1013.6 |
| 20260902024028 | 23 | 341 | 0.0 | 1.6 | 0.00 | 0.00 | 0.00 | 55 | 1013.6 |
| 20260902023528 | 23 | 341 | 0.0 | 1.6 | 0.00 | 0.00 | 0.00 | 54 | 1013.5 |
| 20260902023028 | 23 | 341 | 0.0 | 1.6 | 0.00 | 0.00 | 0.00 | 54 | 1013.6 |
| 20260902022528 | 23 | 340 | 0.0 | 0.0 | 0.00 | 0.00 | 0.00 | 54 | 1013.5 |
| 20260902022027 | 23 | 340 | 0.0 | 1.6 | 0.00 | 0.00 | 0.00 | 54 | 1013.4 |
| 20260902021527 | 23 | 340 | 0.0 | 3.2 | 0.00 | 0.00 | 0.00 | 53 | 1013.4 |
| 20260902021027 | 23 | 340 | 0.0 | 3.2 | 0.00 | 0.00 | 0.00 | 54 | 1013.5 |
| 20260902020528 | 23 | 340 | 0.0 | 4.8 | 0.00 | 0.00 | 0.00 | 53 | 1013.4 |
| 20260902020029 | 23 | 341 | 1.6 | 4.8 | 0.00 | 0.00 | 0.00 | 52 | 1013.3 |
| 20260902015526 | 23 | 341 | 0.0 | 3.2 | 0.00 | 0.00 | 0.00 | 52 | 1013.4 |
| 20260902015028 | 23 | 341 | 0.0 | 4.8 | 0.00 | 0.00 | 0.00 | 52 | 1013.3 |
| 20260902014527 | 23 | 341 | 1.6 | 8.0 | 0.00 | 0.00 | 0.00 | 52 | 1013.3 |
| 20260902014027 | 24 | 342 | 1.6 | 8.0 | 0.00 | 0.00 | 0.00 | 52 | 1013.3 |
| 20260902013526 | 24 | 325 | 3.2 | 9.7 | 0.00 | 0.00 | 0.00 | 52 | 1013.4 |
| 20260902013026 | 24 | 331 | 1.6 | 9.7 | 0.00 | 0.00 | 0.00 | 52 | 1013.2 |
| 20260902012528 | 24 | 333 | 3.2 | 12.9 | 0.00 | 0.00 | 0.00 | 52 | 1013.2 |
| 20260902012029 | 24 | 320 | 1.6 | 12.9 | 0.00 | 0.00 | 0.00 | 51 | 1013.2 |
| 20260902011526 | 24 | 323 | 3.2 | 12.9 | 0.00 | 0.00 | 0.00 | 51 | 1013.3 |
| 20260902011029 | 25 | 310 | 4.8 | 12.9 | 0.00 | 0.00 | 0.00 | 51 | 1013.2 |
| 20260902010525 | 25 | 323 | 3.2 | 6.4 | 0.00 | 0.00 | 0.00 | 51 | 1013.2 |
| 20260902010030 | 25 | 323 | 1.6 | 8.0 | 0.00 | 0.00 | 0.00 | 51 | 1013.3 |
| 20260902005525 | 25 | 300 | 3.2 | 8.0 | 0.00 | 0.00 | 0.00 | 51 | 1013.3 |
| 20260902005025 | 25 | 291 | 1.6 | 8.0 | 0.00 | 0.00 | 0.00 | 51 | 1013.3 |
| 20260902004530 | 25 | 270 | 3.2 | 8.0 | 0.00 | 0.00 | 0.00 | 51 | 1013.3 |
| 20260902004003 | 25 | 292 | 1.6 | 9.7 | 0.00 | 0.00 | 0.00 | 50 | 1013.3 |
| 20260902003503 | 25 | 281 | 4.8 | 9.7 | 0.00 | 0.00 | 0.00 | 50 | 1013.5 |
| 20260902003010 | 25 | 284 | 1.6 | 8.0 | 0.00 | 0.00 | 0.00 | 50 | 1013.3 |
| 20260902002502 | 25 | 286 | 3.2 | 9.7 | 0.00 | 0.00 | 0.00 | 50 | 1013.3 |
| 20260902002002 | 25 | 284 | 3.2 | 9.7 | 0.00 | 0.00 | 0.00 | 50 | 1013.2 |
| 20260902001502 | 25 | 272 | 3.2 | 11.3 | 0.00 | 0.00 | 0.00 | 50 | 1013.2 |
| 20260902001003 | 25 | 297 | 1.6 | 9.7 | 0.00 | 0.00 | 0.00 | 50 | 1013.3 |
| 20260902000502 | 25 | 291 | 3.2 | 12.9 | 0.00 | 0.00 | 0.00 | 49 | 1013.3 |
| 20260902000004 | 25 | 321 | 4.8 | 12.9 | 0.00 | 0.00 | 0.00 | 49 | 1013.3 |
| 20260901235502 | 26 | 261 | 4.8 | 12.9 | 0.00 | 0.00 | 0.00 | 49 | 1013.3 |
| 20260901235001 | 26 | 303 | 3.2 | 16.1 | 0.00 | 0.00 | 0.00 | 49 | 1013.3 |
| 20260901234502 | 26 | 298 | 4.8 | 16.1 | 0.00 | 0.00 | 0.00 | 48 | 1013.2 |
| 20260901234001 | 26 | 310 | 6.4 | 14.5 | 0.00 | 0.00 | 0.00 | 49 | 1013.2 |
| 20260901233500 | 26 | 291 | 6.4 | 14.5 | 0.00 | 0.00 | 0.00 | 48 | 1013.3 |
| 20260901233101 | 26 | 318 | 3.2 | 11.3 | 0.00 | 0.00 | 0.00 | 48 | 1013.4 |
| 20260901232600 | 26 | 300 | 3.2 | 11.3 | 0.00 | 0.00 | 0.00 | 47 | 1013.4 |
| 20260901232100 | 26 | 277 | 6.4 | 16.1 | 0.00 | 0.00 | 0.00 | 47 | 1013.3 |
| 20260901231604 | 26 | 253 | 6.4 | 16.1 | 0.00 | 0.00 | 0.00 | 47 | 1013.3 |
| 20260901231059 | 26 | 250 | 6.4 | 16.1 | 0.00 | 0.00 | 0.00 | 46 | 1013.4 |
| 20260901230559 | 26 | 271 | 6.4 | 16.1 | 0.00 | 0.00 | 0.00 | 47 | 1013.3 |
| 20260901230059 | 26 | 276 | 8.0 | 16.1 | 0.00 | 0.00 | 0.00 | 46 | 1013.4 |
| 20260901225559 | 26 | 281 | 6.4 | 16.1 | 0.00 | 0.00 | 0.00 | 46 | 1013.5 |
| 20260901225058 | 26 | 260 | 4.8 | 16.1 | 0.00 | 0.00 | 0.00 | 46 | 1013.4 |
| 20260901224605 | 26 | 286 | 4.8 | 17.7 | 0.00 | 0.00 | 0.00 | 46 | 1013.5 |
| 20260901224059 | 26 | 271 | 6.4 | 16.1 | 0.00 | 0.00 | 0.00 | 45 | 1013.5 |
| 20260901223558 | 26 | 286 | 6.4 | 17.7 | 0.00 | 0.00 | 0.00 | 47 | 1013.6 |
| 20260901223059 | 27 | 317 | 8.0 | 17.7 | 0.00 | 0.00 | 0.00 | 45 | 1013.5 |
| 20260901222558 | 27 | 265 | 4.8 | 17.7 | 0.00 | 0.00 | 0.00 | 46 | 1013.5 |
| 20260901222058 | 27 | 315 | 6.4 | 17.7 | 0.00 | 0.00 | 0.00 | 45 | 1013.7 |
| 20260901221607 | 27 | 286 | 6.4 | 16.1 | 0.00 | 0.00 | 0.00 | 45 | 1013.7 |
| 20260901221058 | 26 | 273 | 4.8 | 16.1 | 0.00 | 0.00 | 0.00 | 45 | 1013.9 |
| 20260901220556 | 26 | 300 | 6.4 | 19.3 | 0.00 | 0.00 | 0.00 | 45 | 1013.8 |
| 20260901220056 | 26 | 267 | 8.0 | 19.3 | 0.00 | 0.00 | 0.00 | 44 | 1013.8 |
| 20260901215558 | 26 | 276 | 6.4 | 19.3 | 0.00 | 0.00 | 0.00 | 44 | 1013.9 |
| 20260901215056 | 27 | 257 | 3.2 | 19.3 | 0.00 | 0.00 | 0.00 | 44 | 1013.7 |
| 20260901214557 | 26 | 262 | 9.7 | 19.3 | 0.00 | 0.00 | 0.00 | 43 | 1013.6 |
| 20260901214056 | 26 | 273 | 9.7 | 19.3 | 0.00 | 0.00 | 0.00 | 43 | 1013.5 |
| 20260901213600 | 26 | 240 | 6.4 | 16.1 | 0.00 | 0.00 | 0.00 | 44 | 1013.5 |
| 20260901213059 | 26 | 273 | 4.8 | 17.7 | 0.00 | 0.00 | 0.00 | 45 | 1013.5 |
| 20260901212558 | 26 | 267 | 9.7 | 17.7 | 0.00 | 0.00 | 0.00 | 45 | 1013.5 |
| 20260901212056 | 26 | 276 | 4.8 | 17.7 | 0.00 | 0.00 | 0.00 | 44 | 1013.5 |
| 20260901211556 | 27 | 290 | 6.4 | 16.1 | 0.00 | 0.00 | 0.00 | 44 | 1013.6 |
| 20260901211055 | 27 | 250 | 4.8 | 16.1 | 0.00 | 0.00 | 0.00 | 44 | 1013.6 |
| 20260901210558 | 27 | 299 | 6.4 | 17.7 | 0.00 | 0.00 | 0.00 | 43 | 1013.6 |
| 20260901210122 | 27 | 255 | 9.7 | 17.7 | 0.00 | 0.00 | 0.00 | 43 | 1013.7 |
| 20260901205554 | 27 | 289 | 3.2 | 16.1 | 0.00 | 0.00 | 0.00 | 43 | 1013.7 |
| 20260901205054 | 27 | 238 | 9.7 | 16.1 | 0.00 | 0.00 | 0.00 | 43 | 1013.6 |
| 20260901204553 | 27 | 228 | 8.0 | 19.3 | 0.00 | 0.00 | 0.00 | 41 | 1013.5 |
| 20260901204053 | 27 | 262 | 6.4 | 19.3 | 0.00 | 0.00 | 0.00 | 42 | 1013.5 |
| 20260901203554 | 27 | 261 | 6.4 | 19.3 | 0.00 | 0.00 | 0.00 | 42 | 1013.6 |
| 20260901203054 | 27 | 303 | 9.7 | 22.5 | 0.00 | 0.00 | 0.00 | 41 | 1013.5 |
| 20260901202554 | 27 | 257 | 3.2 | 22.5 | 0.00 | 0.00 | 0.00 | 42 | 1013.6 |
| 20260901202056 | 27 | 310 | 9.7 | 24.1 | 0.00 | 0.00 | 0.00 | 42 | 1013.5 |
| 20260901201554 | 28 | 307 | 6.4 | 24.1 | 0.00 | 0.00 | 0.00 | 43 | 1013.5 |
| 20260901201054 | 28 | 335 | 3.2 | 16.1 | 0.00 | 0.00 | 0.00 | 43 | 1013.5 |
| 20260901200554 | 28 | 303 | 3.2 | 14.5 | 0.00 | 0.00 | 0.00 | 44 | 1013.4 |
| 20260901200052 | 28 | 291 | 3.2 | 14.5 | 0.00 | 0.00 | 0.00 | 43 | 1013.4 |
| 20260901195552 | 28 | 226 | 3.2 | 17.7 | 0.00 | 0.00 | 0.00 | 45 | 1013.4 |
| 20260901195051 | 27 | 257 | 6.4 | 17.7 | 0.00 | 0.00 | 0.00 | 44 | 1013.6 |
| 20260901194602 | 27 | 237 | 4.8 | 19.3 | 0.00 | 0.00 | 0.00 | 45 | 1013.5 |
| 20260901194051 | 27 | 269 | 3.2 | 19.3 | 0.00 | 0.00 | 0.00 | 44 | 1013.7 |
| 20260901193555 | 27 | 276 | 4.8 | 17.7 | 0.00 | 0.00 | 0.00 | 46 | 1013.7 |
| 20260901193053 | 27 | 269 | 3.2 | 17.7 | 0.00 | 0.00 | 0.00 | 45 | 1013.8 |
| 20260901192551 | 27 | 255 | 3.2 | 17.7 | 0.00 | 0.00 | 0.00 | 45 | 1013.9 |
| 20260901192051 | 27 | 279 | 9.7 | 20.9 | 0.00 | 0.00 | 0.00 | 45 | 1013.9 |
| 20260901191600 | 27 | 269 | 1.6 | 16.1 | 0.00 | 0.00 | 0.00 | 47 | 1014.0 |
| 20260901191051 | 27 | 211 | 4.8 | 14.5 | 0.00 | 0.00 | 0.00 | 46 | 1014.1 |
| 20260901190549 | 27 | 306 | 4.8 | 14.5 | 0.00 | 0.00 | 0.00 | 45 | 1014.0 |
| 20260901190115 | 27 | 288 | 8.0 | 24.1 | 0.00 | 0.00 | 0.00 | 45 | 1014.0 |
| 20260901185549 | 27 | 243 | 9.7 | 24.1 | 0.00 | 0.00 | 0.00 | 43 | 1014.0 |
| 20260901185049 | 27 | 293 | 6.4 | 24.1 | 0.00 | 0.00 | 0.00 | 43 | 1014.0 |
| 20260901184549 | 28 | 288 | 6.4 | 25.7 | 0.00 | 0.00 | 0.00 | 42 | 1014.0 |
| 20260901184049 | 28 | 251 | 12.9 | 25.7 | 0.00 | 0.00 | 0.00 | 42 | 1014.0 |
| 20260901183548 | 28 | 276 | 8.0 | 19.3 | 0.00 | 0.00 | 0.00 | 42 | 1014.0 |
| 20260901183047 | 28 | 288 | 4.8 | 17.7 | 0.00 | 0.00 | 0.00 | 44 | 1014.0 |
| 20260901182545 | 28 | 244 | 6.4 | 17.7 | 0.00 | 0.00 | 0.00 | 43 | 1014.1 |
| 20260901182045 | 28 | 307 | 8.0 | 17.7 | 0.00 | 0.00 | 0.00 | 48 | 1014.2 |
| 20260901181544 | 27 | 259 | 3.2 | 14.5 | 0.00 | 0.00 | 0.00 | 46 | 1014.3 |
| 20260901181042 | 27 | 309 | 6.4 | 16.1 | 0.00 | 0.00 | 0.00 | 46 | 1014.3 |
| 20260901180541 | 27 | 304 | 8.0 | 22.5 | 0.00 | 0.00 | 0.00 | 47 | 1014.4 |
| 20260901180039 | 27 | 281 | 16.1 | 22.5 | 0.00 | 0.00 | 0.00 | 46 | 1014.5 |
| 20260901175537 | 27 | 279 | 6.4 | 22.5 | 0.00 | 0.00 | 0.00 | 46 | 1014.5 |
| 20260901175037 | 27 | 267 | 8.0 | 19.3 | 0.00 | 0.00 | 0.00 | 46 | 1014.6 |
| 20260901174547 | 27 | 232 | 6.4 | 22.5 | 0.00 | 0.00 | 0.00 | 48 | 1014.6 |
| 20260901174038 | 27 | 290 | 11.3 | 24.1 | 0.00 | 0.00 | 0.00 | 47 | 1014.6 |
| 20260901173536 | 27 | 17 | 8.0 | 24.1 | 0.00 | 0.00 | 0.00 | 47 | 1014.7 |
| 20260901173036 | 27 | 348 | 8.0 | 19.3 | 0.00 | 0.00 | 0.00 | 46 | 1014.7 |
| 20260901172535 | 27 | 279 | 6.4 | 17.7 | 0.00 | 0.00 | 0.00 | 47 | 1014.7 |
| 20260901172035 | 27 | 305 | 3.2 | 16.1 | 0.00 | 0.00 | 0.00 | 48 | 1014.6 |
| 20260901171533 | 26 | 310 | 4.8 | 16.1 | 0.00 | 0.00 | 0.00 | 47 | 1014.7 |
| 20260901171033 | 26 | 286 | 8.0 | 17.7 | 0.00 | 0.00 | 0.00 | 48 | 1014.7 |
| 20260901170535 | 26 | 305 | 8.0 | 22.5 | 0.00 | 0.00 | 0.00 | 47 | 1014.8 |
| 20260901170031 | 26 | 287 | 8.0 | 19.3 | 0.00 | 0.00 | 0.00 | 47 | 1014.7 |
| 20260901165535 | 26 | 250 | 9.7 | 17.7 | 0.00 | 0.00 | 0.00 | 48 | 1014.8 |
| 20260901165032 | 26 | 270 | 3.2 | 11.3 | 0.00 | 0.00 | 0.00 | 50 | 1014.7 |
| 20260901164533 | 26 | 215 | 4.8 | 16.1 | 0.00 | 0.00 | 0.00 | 48 | 1014.8 |
| 20260901164030 | 26 | 265 | 1.6 | 16.1 | 0.00 | 0.00 | 0.00 | 51 | 1014.9 |